User: anonymous   Login
Location: *
(44.1392°N, 4.8079°E)
Time: 00:53:54
(UTC+00:00)
Language:

PSLV R/B - Orbit

View from above orbital plane
View from above orbital plane
View from above satellite
View from above satellite

Ground track
Ground track

The orbit data is extracted from the following two-line orbital elements,

1 28651U 05017C   21260.33215173  .00000090  00000-0  20904-4 0  9999
2 28651  97.9338 174.2592 0074766 134.1069 226.6324 14.73671071879272
Epoch (UTC): 17 September 2021 07:58:17
Eccentricity: 0.0074766
inclination: 97.9338°
perigee height: 597 km
apogee height: 702 km
right ascension of ascending node: 174.2592°
argument of perigee: 134.1069°
revolutions per day: 14.73671071
mean anomaly at epoch: 226.6324°
orbit number at epoch: 87927

The dashed part of the orbit path shows where the satellite is in the earth's shadow,  

DLR